Weather History for KDKK - September, 2013

Change the Weather History Date:

Wednesday, September 4, 2013

  Actual Average Record
Temperature  
Mean Temperature 64 °F -  
Max Temperature 73 °F 75 °F 95 °F (1953)
Min Temperature 55 °F 58 °F 46 °F (1946)
Degree Days  
Heating Degree Days 1    
Growing Degree Days 14 (Base 50)    
Moisture  
Dew Point 58 °F    
Average Humidity 74    
Maximum Humidity 90    
Minimum Humidity 55    
Precipitation  
Precipitation 0.10 in - - ()
Sea Level Pressure  
Sea Level Pressure 30.02 in    
Wind  
Wind Speed 11 mph (SW)    
Max Wind Speed 22 mph    
Max Gust Speed 32 mph    
Visibility 10 miles    
Events Rain    
Averages and records for this station are not official NWS values.
T = Trace of Precipitation, MM = Missing Value Source: NWS Daily Summary

Daily Weather History Graph

Daily Weather History Graph

Search for Another Location

Airport or City:

Trip Planner

Search our weather history database for the weather conditions in past years. The results will help you decide how hot, cold, wet, or windy it might be!

Date:

Astronomy

Sep. 04, 2013 Rise Set
Actual Time 6:45 AM EDT 7:45 PM EDT
Civil Twilight 6:16 AM EDT 8:14 PM EDT
Nautical Twilight 5:42 AM EDT 8:48 PM EDT
Astronomical Twilight 5:06 AM EDT 9:24 PM EDT
Moon 5:56 AM EDT (9/4) 7:03 PM EDT (9/4)
Length of Visible Light 13h 57m
Length of Day
13h 00m
Waning Crescent, 1% of the Moon is Illuminated
Sep 4
Waning Crescent
Sep 5
New
Sep 12
First Quarter
Sep 19
Full
Sep 26
Last Quarter

Hourly Weather History & Observations

Time (EDT) Temp. Dew Point Humidity Pressure Visibility Wind Dir Wind Speed Gust Speed Precip Events Conditions
12:53 AM 55.9 °F 52.0 °F 87% 29.99 in 10.0 mi SSW 4.6 mph - N/A   Clear
1:53 AM 55.9 °F 51.1 °F 84% 29.99 in 10.0 mi SSW 10.4 mph - N/A   Clear
2:53 AM 57.9 °F 55.0 °F 90% 29.99 in 10.0 mi SSW 12.7 mph - N/A   Clear
3:53 AM 59.0 °F 55.9 °F 90% 29.99 in 10.0 mi SSW 12.7 mph - N/A   Clear
4:53 AM 59.0 °F 55.0 °F 87% 30.00 in 10.0 mi SSW 8.1 mph - N/A   Clear
5:53 AM 61.0 °F 57.0 °F 87% 30.01 in 10.0 mi SSW 12.7 mph - N/A   Mostly Cloudy
6:53 AM 61.0 °F 57.9 °F 90% 30.03 in 10.0 mi SW 10.4 mph - N/A   Partly Cloudy
7:26 AM 62.6 °F 57.2 °F 82% 30.04 in 10.0 mi WSW 6.9 mph - N/A   Mostly Cloudy
7:37 AM 62.6 °F 57.2 °F 82% 30.04 in 10.0 mi SW 8.1 mph - N/A   Scattered Clouds
7:53 AM 63.0 °F 57.9 °F 84% 30.04 in 10.0 mi SW 10.4 mph - N/A   Clear
8:53 AM 66.0 °F 59.0 °F 78% 30.04 in 10.0 mi SW 13.8 mph 18.4 mph N/A   Partly Cloudy
9:53 AM 69.1 °F 61.0 °F 75% 30.04 in 10.0 mi WSW 12.7 mph 25.3 mph N/A   Scattered Clouds
10:09 AM 69.8 °F 60.8 °F 73% 30.04 in 10.0 mi WSW 11.5 mph 20.7 mph N/A   Mostly Cloudy
10:19 AM 69.8 °F 60.8 °F 73% 30.05 in 10.0 mi WSW 13.8 mph 23.0 mph N/A   Scattered Clouds
10:44 AM 69.8 °F 60.8 °F 73% 30.04 in 10.0 mi WSW 13.8 mph 23.0 mph N/A   Mostly Cloudy
10:53 AM 69.1 °F 60.1 °F 73% 30.04 in 10.0 mi WSW 18.4 mph 27.6 mph N/A   Mostly Cloudy
11:11 AM 71.6 °F 60.8 °F 69% 30.04 in 10.0 mi WSW 15.0 mph 27.6 mph N/A   Scattered Clouds
11:30 AM 71.6 °F 60.8 °F 69% 30.04 in 10.0 mi WSW 13.8 mph 24.2 mph N/A   Mostly Cloudy
11:53 AM 70.0 °F 61.0 °F 73% 30.04 in 10.0 mi West 15.0 mph 27.6 mph N/A   Mostly Cloudy
12:21 PM 71.6 °F 57.2 °F 60% 30.04 in 10.0 mi West 17.3 mph 27.6 mph N/A   Mostly Cloudy
12:53 PM 72.0 °F 57.0 °F 59% 30.04 in 10.0 mi WSW 21.9 mph 32.2 mph N/A   Clear
1:53 PM 72.0 °F 55.9 °F 57% 30.04 in 10.0 mi WSW 16.1 mph 31.1 mph N/A   Clear
2:53 PM 72.0 °F 57.0 °F 59% 30.03 in 10.0 mi WSW 17.3 mph 31.1 mph N/A   Clear
3:53 PM 73.0 °F 57.9 °F 59% 30.01 in 10.0 mi WSW 17.3 mph 29.9 mph N/A   Clear
4:53 PM 72.0 °F 59.0 °F 64% 30.01 in 10.0 mi WSW 18.4 mph 25.3 mph N/A   Clear
5:53 PM 72.0 °F 55.0 °F 55% 30.01 in 10.0 mi SW 15.0 mph 20.7 mph N/A   Clear
6:53 PM 71.1 °F 57.0 °F 61% 30.00 in 10.0 mi SW 13.8 mph 23.0 mph N/A   Scattered Clouds
7:53 PM 70.0 °F 57.9 °F 65% 30.01 in 10.0 mi SW 11.5 mph - N/A   Mostly Cloudy
8:53 PM 68.0 °F 57.0 °F 68% 30.01 in 10.0 mi SW 9.2 mph - N/A   Overcast
9:53 PM 68.0 °F 57.9 °F 70% 30.01 in 10.0 mi SW 9.2 mph - N/A   Overcast
10:53 PM 69.1 °F 57.9 °F 68% 30.00 in 10.0 mi WSW 6.9 mph - N/A   Mostly Cloudy
11:48 PM 66.2 °F 62.6 °F 88% 30.01 in 2.0 mi West 12.7 mph 19.6 mph 0.10 in Rain Light Rain
11:51 PM 66.2 °F 62.6 °F 88% 30.01 in 3.0 mi WNW 13.8 mph 19.6 mph 0.10 in Rain Light Rain
11:53 PM 66.9 °F 64.0 °F 90% 30.00 in 7.0 mi WNW 12.7 mph 19.6 mph 0.10 in Rain Light Rain